Regional Weather Roundup
Issued by NWS

Home | Current Version | Previous Version | Text Only | Print | Product List | Glossary Off
Versions: 1 2 3 4 5 6 7 8 9 10 11 12 13 14 15 16 17 18 19 20 21 22 23 24 25 26 27 28 29 30 31 32 33 34 35 36 37 38 39 40 41 42 43 44 45 46 47 48 49 50

000
ASUS43 KLSX 211907
RWRMO

WEATHER SUMMARY FOR MISSOURI
NATIONAL WEATHER SERVICE SPRINGFIELD MO
100 PM CST TUE FEB 21 2017

NOTE: "FAIR" INDICATES FEW OR NO CLOUDS BELOW 12,000 FEET WITH NO
       SIGNIFICANT WEATHER AND/OR OBSTRUCTIONS TO VISIBILITY.
       CURRENT SKY AND/OR WEATHER CONDITIONS ARE NOT AVAILABLE FOR
       CHILLICOTHE AND FARMINGTON.

MOZ001>031-035>038-043-044-053-054-212000-
...NORTHERN AND WESTERN MISSOURI...

CITY           SKY/WX    TMP DP  RH WIND       PRES   REMARKS
KANSAS CTY INT MOSUNNY   68  44  42 N7        29.96F
KANSAS C DTWN  SUNNY     68  47  46 VRB3      29.94F
LEE`S SUMMIT   SUNNY     66  51  58 NW6       29.96F
ST JOSEPH      SUNNY     64  42  44 VRB3      29.95F
CHILLICOTHE      N/A     69  47  45 NE3       29.95F
KIRKSVILLE     SUNNY     67  48  50 SE7       29.94F

$$
MOZ066>068-077>081-088>096-101>105-212000-
...SOUTHWEST MISSOURI...

CITY           SKY/WX    TMP DP  RH WIND       PRES   REMARKS
SPRINGFIELD    LGT RAIN  59  57  93 N6        29.91F FOG
JOPLIN         CLOUDY    66  56  70 NW9       29.94F
BRANSON        PTSUNNY   57  57 100 N9G17     29.89F

$$
MOZ032>034-039>042-045>050-055>058-069>072-212000-
...CENTRAL MISSOURI...

CITY           SKY/WX    TMP DP  RH WIND       PRES   REMARKS
COLUMBIA       CLOUDY    65  58  78 NE7       29.93F
JEFFERSON CITY CLOUDY    64  57  78 N6        29.91F
ROLLA          CLOUDY    61  60  97 NE9       29.90F
SEDALIA        SUNNY     72  53  51 VRB5      29.93F
WARRENSBURG    SUNNY     64  50  59 NW6       29.95F
OSAGE BEACH    CLOUDY    64  57  78 N7        29.92F

$$
MOZ051-052-059>065-212000-
...EAST CENTRAL MISSOURI...

CITY           SKY/WX    TMP DP  RH WIND       PRES   REMARKS
ST LOUIS INTL  CLOUDY    63  58  83 NE5       29.93S
SPIRIT OF STL  CLOUDY    62  61  96 CALM      29.92S FOG
ST CHARLES     CLOUDY    63  60  90 E5        29.91F

$$
MOZ072>076-082>087-097>100-106>115-212000-
...SOUTH CENTRAL AND SOUTHEAST MISSOURI...

CITY           SKY/WX    TMP DP  RH WIND       PRES   REMARKS
CAPE GIRARDEAU CLOUDY    61  53  75 E9        29.91S
FARMINGTON     CLOUDY    60  53  77 SE6       29.89F
POPLAR BLUFF   CLOUDY    61  57  87 E6        29.88S
WEST PLAINS    CLOUDY    59  56  89 NE7       29.89R

$$


USA.gov is the U.S. government's official web portal to all federal, state and local government web resources and services.